Volver al catálogo

STARLINK-3878

ActivoComunicacionesVLEO
NORAD 52479·PAYLOAD·🇺🇸 United States

Lanzado May 6, 2022 desde Cape Canaveral Space Force Station

Loading…

Próximos Pases (próximas 24 horas)

TLE

ActualizadoSource: CelesTrak SupGP

Época: Sep 15, 2026, 03:01 UTC

1 52479C 22049AE  26258.12618056 -.00013519  00000+0 -43469-3 0  2583
2 52479  53.1587 274.9033 0001132  84.6657 280.5189 15.31711664    18

Sigue STARLINK-3878 en tiempo real con AllMySat

Download on the App Store